Overview Statistics Trail Chart Weather Telemetry Raw packets
 

This is the latest recevied weather packets stored in our database for station/object KA6UPU-1. If no packets are shown the sender has not sent any weather packets the latest 10 day(s).

<< 16 17 18 19 20 21 22 >>
Time Temp. Humidity Pressure Rain* Wind** Luminosity Snow
1788544514 20° C 66% 1013.9 hPa 0 mm - - -
1788543614 20° C 69% 1014 hPa 0 mm - - -
1788542087 18.89° C 71% 1014 hPa 0 mm - - -
1788541487 18.89° C 72% 1013.8 hPa 0 mm - - -
1788539726 17.78° C 76% 1013.6 hPa 0 mm - - -
1788539426 17.78° C 77% 1013.6 hPa 0 mm - - -
1788539126 17.78° C 78% 1013.5 hPa 0 mm - - -
1788538827 17.78° C 81% 1013.5 hPa 0 mm - - -
1788538526 17.22° C 81% 1013.5 hPa 0 mm - - -
1788537926 17.22° C 84% 1013.5 hPa 0 mm - - -
1788537626 17.22° C 86% 1013.5 hPa 0 mm - - -
1788537326 16.67° C 86% 1013.6 hPa 0 mm - - -
1788537026 16.67° C 87% 1013.5 hPa 0.25 mm - - -
1788536746 16.67° C 88% 1013.5 hPa 0.25 mm - - -
1788536126 16.11° C 91% 1013.5 hPa 0.25 mm - - -
1788535826 15.56° C 91% 1013.4 hPa 0.25 mm - - -
1788535526 15.56° C 93% 1013.4 hPa 0.25 mm - - -
1788535226 15.56° C 93% 1013.4 hPa 0.25 mm - - -
1788534625 15° C 94% 1013.2 hPa 0.25 mm - - -
1788534325 14.44° C 94% 1013.2 hPa 0.25 mm - - -
1788533751 13.89° C 94% 1013.3 hPa 0.25 mm - - -
1788533425 13.89° C 94% 1013.3 hPa 0 mm - - -
1788533125 13.89° C 94% 1013.2 hPa 0 mm - - -
1788532825 13.33° C 94% 1013.2 hPa 0 mm - - -
1788532226 12.78° C 94% 1013.1 hPa 0 mm - - -

* Rain latest hour (hover to see other rain measurements)
** Current wind speed in m/s (hover to see current wind gust speed)